STARLINK-30184, 57310

Orbit data source: Space-Track

STARLINK-30184, 57310 is a payload satellite owned by SpaceX/Seattle (US) in LEO that was launched on Mon, 10 Jul 2023 UTC via an FALCON 9 launch vehicle from the Air Force Eastern Test Range (AFETR). Payload-class satellites include a variety of spacecraft equipped with specific instruments for various scientific and technological missions. These include communications satellites like Starlink; space stations such as the ISS; scientific satellites like the Hubble; Earth observation satellites from companies like Planet Labs, Umbra, and HawkEye 360; GPS; miniature CubeSats for education and research; and military/defense satellites.

Loading next visibility...
Identifier
57310, 2023-096W
Orbit
LEO
Country
Flag of USUS
Related business
Manufacturer
SpaceX/Seattle
Mission
Operational Commercial Communications
Bus & Motor
STARLINK V2M, Unknown motor
Mass
730 kg wet, ~700 kg dry
Launch date (UTC)
2023-07-10 (2 years ago)
Launch vehicle
FALCON 9
Launch site
Air Force Eastern Test Range (AFETR)
Object type
Payload
Rocket body
Debris
Shape & HBR
Box + 2 Pan, 17.7 m
Radar Cross Section
33.884 m², Large (>1 m²)

Expand to show TLE details & history
Last TLE update: 2 days ago

TLE from 2 days ago
0 STARLINK-30184
1 57310U 23096W   25312.52896488 -.00000585  00000-0 -28268-4 0  9999
2 57310  43.0039 135.4852 0000982 271.0977  88.9752 15.02527757128794
Epoch: 2025-11-08T12:41Z
TLE epoch observation values (Epoch: 2025-11-08T12:41:42.565Z)
Latitude
-0.00008°
Longitude
-102.89952°
Altitude
558.871 km
Speed
7.584 km/s
True Right ascension
09h 01m 56s
True Declination
0° 00' 00"
Sunlit
Object was in daylight at epoch
Visualization orbit readout
Latitude
Unknown
Longitude
Unknown
Altitude
Unknown
Speed
Unknown
Apparent Right ascension
Unknown
Apparent Declination
Unknown
Sunlit
N/A
Visualization observer readout
Local Sidereal Time
04:27:19
Azimuth
Unknown
Elevation
Unknown
Doppler factor
Unknown
Orbital elements
Apogee altitude
561.71 km
Perigee altitude
560.347 km
Semi-major axis
6,939.165 km
Eccentricity
0.0001
Inclination
43.0039°
RAAN
135.4852°
Arg. of periapsis
271.0977°
True anomaly
88.98645°
Mean anomaly
88.9752°
Eccentric anomaly
88.98083°
Mean motion
3.75476 °/min
Orbital period
95.88 mins
BSTAR
-0.000028268
Loading maneuver chart data...
Computing Atmospheric mass density...

Documentation

Showing up to 5 results
|